This is the latest recevied weather packets stored in our database for station/object KN6CW-3. If no packets are shown the sender has not sent any weather packets the latest 10 day(s).
| Time | Temp. | Humidity | Pressure | Rain* | Wind** | Luminosity | Snow |
|---|---|---|---|---|---|---|---|
| 1777843908 | 12.22° C | 39% | 1012 hPa | 0 mm | - | 339 W/m² | - |
| 1777843608 | 12.22° C | 39% | 1011.9 hPa | 0 mm | - | 209 W/m² | - |
| 1777843308 | 12.22° C | 38% | 1011.9 hPa | 0 mm | - | 455 W/m² | - |
| 1777843007 | 11.67° C | 38% | 1012 hPa | 0 mm | - | 250 W/m² | - |
| 1777842707 | 11.67° C | 38% | 1011.9 hPa | 0 mm | - | 162 W/m² | - |
| 1777842407 | 12.22° C | 38% | 1011.9 hPa | 0 mm | - | 165 W/m² | - |
| 1777842107 | 12.22° C | 38% | 1011.8 hPa | 0 mm | - | 278 W/m² | - |
| 1777841806 | 12.78° C | 38% | 1011.8 hPa | 0 mm | - | 338 W/m² | - |
| 1777841506 | 12.22° C | 38% | 1011.7 hPa | 0 mm | - | 540 W/m² | - |
| 1777841206 | 12.22° C | 37% | 1011.8 hPa | 0 mm | - | 220 W/m² | - |
| 1777840906 | 11.67° C | 37% | 1011.9 hPa | 0 mm | - | 258 W/m² | - |
| 1777840605 | 12.22° C | 37% | 1012 hPa | 0 mm | - | 271 W/m² | - |
| 1777840305 | 11.67° C | 37% | 1012 hPa | 0 mm | - | 193 W/m² | - |
| 1777840005 | 12.22° C | 37% | 1012 hPa | 0 mm | - | 169 W/m² | - |
| 1777839704 | 12.78° C | 37% | 1012 hPa | 0 mm | - | 657 W/m² | - |
| 1777839404 | 12.22° C | 37% | 1011.9 hPa | 0 mm | - | 686 W/m² | - |
| 1777838803 | 12.22° C | 38% | 1011.9 hPa | 0 mm | - | 805 W/m² | - |
| 1777838503 | 11.67° C | 37% | 1012.2 hPa | 0 mm | - | 898 W/m² | - |
| 1777838203 | 11.67° C | 36% | 1012.2 hPa | 0 mm | - | 745 W/m² | - |
| 1777837903 | 11.67° C | 37% | 1012.3 hPa | 0 mm | - | 172 W/m² | - |
| 1777837602 | 12.22° C | 37% | 1012.3 hPa | 0 mm | - | 225 W/m² | - |
| 1777837302 | 12.22° C | 38% | 1012.4 hPa | 0 mm | - | 846 W/m² | - |
| 1777837002 | 12.22° C | 37% | 1012.3 hPa | 0 mm | - | 918 W/m² | - |
| 1777836701 | 12.22° C | 36% | 1012.5 hPa | 0 mm | - | 510 W/m² | - |
| 1777836401 | 12.22° C | 38% | 1012.5 hPa | 0 mm | - | 828 W/m² | - |
* Rain latest hour (hover to see other rain measurements)
** Current wind speed in m/s (hover to see current wind gust speed)